Simultaneous Nadir Overpasses (SNOs) Predictions

Prediction of SNOs between GOES-17 and LANDSAT-8 Satellite Orbit:

Table of predicted SNOs for the next 14.0 days since TLE Epoch: 7/29/2023
Index Date Time (GOES-17) GOES-17 Lat,Lon LANDSAT-8 Lat,Lon Distance(km) Time Diff (sec)
1 07/29/2023 05:21:43 -0.01,-104.71 -0.51,-107.00 260.89 80
2 07/31/2023 05:06:53 -0.00,-104.70 0.13,-104.04 74.06 80
3 08/02/2023 04:54:43 0.00,-104.69 0.79,-101.09 409.25 80
4 08/02/2023 17:15:58 -0.00,-104.71 0.35,-106.24 175.22 80
5 08/04/2023 17:06:28 -0.00,-104.70 -0.32,-103.29 160.78 80
6 08/05/2023 05:27:52 0.00,-104.69 -0.81,-108.48 430.99 80
7 08/06/2023 16:54:17 -0.00,-104.70 -0.94,-100.33 497.15 80
8 08/07/2023 05:15:41 0.00,-104.69 -0.18,-105.52 94.67 80
9 08/09/2023 05:00:50 0.01,-104.69 0.46,-102.56 241.62 80
10 08/09/2023 17:22:06 -0.01,-104.70 0.61,-107.72 343.57 80
11 08/11/2023 17:09:54 -0.01,-104.70 0.02,-104.76 7.46 80
